RYR32FV LEZL-EGBB

Flight info

Callsign RYR32FV
Flight time 2h 22m
Altitude 36000
Route HIJ M30 PARKA N858 DGO N867 BLV P87 BELEN DCT DIDIG UP87 MOKOR UN873 OLEBA DCT ROGPU DCT DIKRO UM184 HEMEL
Aircraft B738/M-SDE3FGILRWY/SB1

Departure

Time 2026-05-04 18:19
Airport Seville Airport (LEZL)

Arrival

Time 2026-05-04 20:41
Airport Birmingham Airport (EGBB)
Time Latitude Longitude Altitude Speed Heading
2026-05-04 17:55 37.42153 -5.90028 94 ft 0 kts 315°
2026-05-04 18:10 37.42146 -5.90018 93 ft 4 kts 312°
2026-05-04 18:10 37.42132 -5.89997 93 ft 4 kts 310°
2026-05-04 18:10 37.42112 -5.89977 93 ft 4 kts 344°
2026-05-04 18:10 37.42089 -5.89978 91 ft 4 kts 36°
2026-05-04 18:11 37.42071 -5.89999 91 ft 3 kts 44°
2026-05-04 18:11 37.42068 -5.90002 91 ft 0 kts 44°
2026-05-04 18:13 37.42070 -5.89958 92 ft 6 kts 112°
2026-05-04 18:14 37.42045 -5.89915 94 ft 8 kts 134°
2026-05-04 18:14 37.41991 -5.89869 95 ft 10 kts 132°
2026-05-04 18:14 37.41980 -5.89778 95 ft 12 kts 90°
2026-05-04 18:15 37.41982 -5.89512 97 ft 21 kts 89°
2026-05-04 18:15 37.41983 -5.89085 100 ft 26 kts 90°
2026-05-04 18:15 37.41984 -5.88848 101 ft 27 kts 90°
2026-05-04 18:16 37.41985 -5.88621 103 ft 25 kts 89°
2026-05-04 18:16 37.41987 -5.88408 104 ft 23 kts 89°
2026-05-04 18:16 37.41986 -5.88208 105 ft 23 kts 90°
2026-05-04 18:17 37.41989 -5.87812 107 ft 23 kts 90°
2026-05-04 18:17 37.41988 -5.87596 108 ft 26 kts 91°
2026-05-04 18:17 37.41808 -5.87442 114 ft 7 kts 206°
2026-05-04 18:18 37.41800 -5.87500 116 ft 10 kts 270°
2026-05-04 18:18 37.41799 -5.87850 110 ft 75 kts 269°
2026-05-04 18:18 37.41797 -5.88776 103 ft 135 kts 270°
2026-05-04 18:18 37.41812 -5.90122 380 ft 160 kts 267°
2026-05-04 18:19 37.42275 -5.92808 1578 ft 181 kts 309°
2026-05-04 18:19 37.43240 -5.93949 1982 ft 198 kts 315°
2026-05-04 18:19 37.44303 -5.95151 2253 ft 217 kts 315°
2026-05-04 18:20 37.45452 -5.96471 2554 ft 235 kts 315°
2026-05-04 18:20 37.46693 -5.97913 2976 ft 250 kts 316°
2026-05-04 18:20 37.47970 -5.99412 3768 ft 251 kts 316°
2026-05-04 18:20 37.49243 -6.00916 4576 ft 253 kts 316°
2026-05-04 18:21 37.50533 -6.02430 5317 ft 257 kts 320°
2026-05-04 18:21 37.52163 -6.03340 6044 ft 262 kts 354°
2026-05-04 18:21 37.53948 -6.02985 6767 ft 272 kts 19°
2026-05-04 18:21 37.55622 -6.01778 7374 ft 282 kts 32°
2026-05-04 18:22 37.57225 -6.00293 7976 ft 291 kts 34°
2026-05-04 18:22 37.58840 -5.98730 8658 ft 295 kts 35°
2026-05-04 18:22 37.60482 -5.97131 9268 ft 302 kts 35°
2026-05-04 18:22 37.62160 -5.95502 9910 ft 307 kts 34°
2026-05-04 18:23 37.63885 -5.93840 10317 ft 321 kts 34°
2026-05-04 18:23 37.65727 -5.92075 10467 ft 343 kts 34°
2026-05-04 18:23 37.67663 -5.90224 10827 ft 355 kts 34°
2026-05-04 18:23 37.69653 -5.88323 11400 ft 361 kts 34°
2026-05-04 18:24 37.71660 -5.86405 12105 ft 362 kts 34°
2026-05-04 18:24 37.73678 -5.84476 12784 ft 366 kts 34°
2026-05-04 18:24 37.75721 -5.82527 13458 ft 370 kts 33°
2026-05-04 18:24 37.77784 -5.80558 14126 ft 374 kts 33°
2026-05-04 18:25 37.79870 -5.78567 14734 ft 378 kts 33°
2026-05-04 18:25 37.81984 -5.76549 15375 ft 382 kts 33°
2026-05-04 18:25 37.84113 -5.74514 16021 ft 386 kts 33°
2026-05-04 18:25 37.86264 -5.72456 16648 ft 390 kts 33°
2026-05-04 18:26 37.88438 -5.70377 17268 ft 394 kts 33°
2026-05-04 18:26 37.90640 -5.68268 17875 ft 399 kts 33°
2026-05-04 18:26 37.92109 -5.66861 18288 ft 402 kts 32°
2026-05-04 18:26 37.94350 -5.64712 18826 ft 406 kts 32°
2026-05-04 18:27 37.96608 -5.62545 19368 ft 409 kts 32°
2026-05-04 18:27 37.98887 -5.60355 19913 ft 412 kts 32°
2026-05-04 18:27 38.01181 -5.58150 20442 ft 416 kts 32°
2026-05-04 18:27 38.03497 -5.55922 20941 ft 420 kts 32°
2026-05-04 18:28 38.05833 -5.53672 21471 ft 423 kts 32°
2026-05-04 18:28 38.08188 -5.51402 21976 ft 427 kts 32°
2026-05-04 18:28 38.10564 -5.49114 22494 ft 430 kts 32°
2026-05-04 18:28 38.12957 -5.46803 22984 ft 434 kts 32°
2026-05-04 18:29 38.15370 -5.44472 23461 ft 438 kts 32°
2026-05-04 18:29 38.17804 -5.42118 23883 ft 441 kts 32°
2026-05-04 18:29 38.20248 -5.39752 24302 ft 443 kts 32°
2026-05-04 18:29 38.22709 -5.37367 24719 ft 445 kts 32°
2026-05-04 18:30 38.27670 -5.32555 25484 ft 451 kts 32°
2026-05-04 18:30 38.30174 -5.30123 25833 ft 455 kts 32°
2026-05-04 18:30 38.32696 -5.27671 26210 ft 457 kts 32°
2026-05-04 18:31 38.35230 -5.25205 26596 ft 459 kts 32°
2026-05-04 18:31 38.37777 -5.22723 26965 ft 462 kts 32°
2026-05-04 18:31 38.40334 -5.20230 27316 ft 465 kts 32°
2026-05-04 18:31 38.42910 -5.17716 27670 ft 467 kts 32°
2026-05-04 18:32 38.45496 -5.15192 28022 ft 469 kts 32°
2026-05-04 18:32 38.48142 -5.12759 28338 ft 467 kts 24°
2026-05-04 18:32 38.51041 -5.11139 28627 ft 456 kts
2026-05-04 18:32 38.54119 -5.10388 29011 ft 446 kts 357°
2026-05-04 18:33 38.57182 -5.10463 29346 ft 438 kts 347°
2026-05-04 18:33 38.60230 -5.10828 29642 ft 441 kts 347°
2026-05-04 18:33 38.63290 -5.11196 29921 ft 443 kts 347°
2026-05-04 18:33 38.66373 -5.11550 30191 ft 446 kts 347°
2026-05-04 18:34 38.69471 -5.11886 30465 ft 447 kts 348°
2026-05-04 18:34 38.72576 -5.12209 30769 ft 448 kts 348°
2026-05-04 18:34 38.75678 -5.12523 31108 ft 447 kts 348°
2026-05-04 18:34 38.78773 -5.12835 31525 ft 445 kts 348°
2026-05-04 18:35 38.81858 -5.13146 31854 ft 445 kts 347°
2026-05-04 18:35 38.84943 -5.13460 32172 ft 444 kts 347°
2026-05-04 18:35 38.88021 -5.13774 32506 ft 443 kts 347°
2026-05-04 18:35 38.91090 -5.14087 32868 ft 442 kts 347°
2026-05-04 18:36 38.94154 -5.14400 33205 ft 441 kts 347°
2026-05-04 18:36 38.97236 -5.14562 33482 ft 450 kts 355°
2026-05-04 18:36 39.00361 -5.13905 33757 ft 463 kts
2026-05-04 18:36 39.03402 -5.12378 34075 ft 476 kts 21°
2026-05-04 18:37 39.06217 -5.10186 34284 ft 481 kts 26°
2026-05-04 18:37 39.09021 -5.07821 34494 ft 483 kts 27°
2026-05-04 18:37 39.11813 -5.05419 34695 ft 483 kts 27°
2026-05-04 18:37 39.14606 -5.03020 34915 ft 483 kts 27°
2026-05-04 18:38 39.17407 -5.00637 35164 ft 482 kts 27°
2026-05-04 18:38 39.20209 -4.98277 35403 ft 481 kts 26°
2026-05-04 18:38 39.23019 -4.95928 35574 ft 482 kts 26°
2026-05-04 18:38 39.25837 -4.93582 35756 ft 483 kts 26°
2026-05-04 18:39 39.28664 -4.91233 35912 ft 484 kts 26°
2026-05-04 18:39 39.34330 -4.86516 35973 ft 485 kts 27°
2026-05-04 18:40 39.39981 -4.81793 35983 ft 483 kts 27°
2026-05-04 18:40 39.45607 -4.77081 35981 ft 481 kts 27°
2026-05-04 18:41 39.51223 -4.72369 35994 ft 481 kts 27°
2026-05-04 18:41 39.56836 -4.67652 35990 ft 480 kts 27°
2026-05-04 18:42 39.62439 -4.62934 35977 ft 480 kts 27°
2026-05-04 18:42 39.68045 -4.58203 35967 ft 480 kts 27°
2026-05-04 18:43 39.73646 -4.53467 35990 ft 481 kts 27°
2026-05-04 18:43 39.79219 -4.48746 35976 ft 482 kts 27°
2026-05-04 18:44 39.84843 -4.43971 35974 ft 483 kts 27°
2026-05-04 18:44 39.90475 -4.39180 35967 ft 484 kts 27°
2026-05-04 18:45 39.96117 -4.34375 36001 ft 485 kts 27°
2026-05-04 18:45 40.02036 -4.30310 35981 ft 479 kts 18°
2026-05-04 18:46 40.08112 -4.26745 35978 ft 479 kts 18°
2026-05-04 18:46 40.14190 -4.23159 35972 ft 480 kts 18°
2026-05-04 18:47 40.20263 -4.19485 35979 ft 481 kts 19°
2026-05-04 18:47 40.26328 -4.15771 35977 ft 481 kts 19°
2026-05-04 18:48 40.32395 -4.12044 35976 ft 481 kts 19°
2026-05-04 18:48 40.38452 -4.08319 35971 ft 481 kts 19°
2026-05-04 18:49 40.44509 -4.04590 35978 ft 481 kts 19°
2026-05-04 18:49 40.50566 -4.00853 35985 ft 481 kts 19°
2026-05-04 18:50 40.56612 -3.97115 35988 ft 480 kts 19°
2026-05-04 18:50 40.62659 -3.93369 36000 ft 480 kts 19°
2026-05-04 18:51 40.68698 -3.89622 35999 ft 480 kts 19°
2026-05-04 18:51 40.74733 -3.85868 35993 ft 479 kts 19°
2026-05-04 18:52 40.80756 -3.82114 35999 ft 478 kts 19°
2026-05-04 18:52 40.86383 -3.78600 35995 ft 478 kts 19°
2026-05-04 18:53 40.92364 -3.74859 35977 ft 479 kts 19°
2026-05-04 18:53 40.98379 -3.71088 35983 ft 478 kts 20°
2026-05-04 18:54 41.04394 -3.67310 36004 ft 479 kts 20°
2026-05-04 18:54 41.10417 -3.63519 35998 ft 480 kts 20°
2026-05-04 18:55 41.16466 -3.59741 35999 ft 480 kts 18°
2026-05-04 18:55 41.25724 -3.54692 35993 ft 480 kts 16°
2026-05-04 18:56 41.31918 -3.51363 36012 ft 481 kts 17°
2026-05-04 18:56 41.38107 -3.47975 35989 ft 481 kts 17°
2026-05-04 18:57 41.44293 -3.44567 35992 ft 481 kts 17°
2026-05-04 18:57 41.50467 -3.41165 35981 ft 480 kts 17°
2026-05-04 18:58 41.56634 -3.37765 36002 ft 479 kts 18°
2026-05-04 18:58 41.62792 -3.34366 35986 ft 478 kts 18°
2026-05-04 18:59 41.68938 -3.30966 35987 ft 478 kts 18°
2026-05-04 18:59 41.75076 -3.27561 36001 ft 478 kts 18°
2026-05-04 19:00 41.81177 -3.24171 35998 ft 478 kts 18°
2026-05-04 19:00 41.87318 -3.20751 35993 ft 478 kts 18°
2026-05-04 19:01 41.93449 -3.17330 35995 ft 478 kts 18°
2026-05-04 19:01 41.99588 -3.13897 36004 ft 478 kts 18°
2026-05-04 19:02 42.05739 -3.10450 36003 ft 479 kts 18°
2026-05-04 19:02 42.11890 -3.06995 35998 ft 479 kts 18°
2026-05-04 19:03 42.18039 -3.03534 36003 ft 479 kts 19°
2026-05-04 19:03 42.24179 -3.00071 36009 ft 478 kts 19°
2026-05-04 19:04 42.30311 -2.96605 36015 ft 478 kts 19°
2026-05-04 19:04 42.36439 -2.93133 36016 ft 477 kts 19°
2026-05-04 19:05 42.42575 -2.89720 36015 ft 475 kts 15°
2026-05-04 19:05 42.48983 -2.88157 36007 ft 464 kts 356°
2026-05-04 19:06 42.55397 -2.88480 36014 ft 461 kts 353°
2026-05-04 19:06 42.61800 -2.88902 36028 ft 461 kts 353°
2026-05-04 19:07 42.68165 -2.89269 36025 ft 461 kts 353°
2026-05-04 19:07 42.74578 -2.89603 36023 ft 462 kts 354°
2026-05-04 19:08 42.81005 -2.89932 36026 ft 463 kts 354°
2026-05-04 19:08 42.87443 -2.90262 36015 ft 463 kts 354°
2026-05-04 19:09 42.93887 -2.90596 36035 ft 464 kts 354°
2026-05-04 19:09 43.00341 -2.90931 36031 ft 465 kts 354°
2026-05-04 19:10 43.06806 -2.91267 36030 ft 466 kts 354°
2026-05-04 19:10 43.13291 -2.91605 36021 ft 467 kts 354°
2026-05-04 19:11 43.19791 -2.91945 36032 ft 468 kts 354°
2026-05-04 19:11 43.26298 -2.92285 36025 ft 468 kts 354°
2026-05-04 19:12 43.35046 -2.91370 36036 ft 474 kts
2026-05-04 19:13 43.39288 -2.90063 36021 ft 474 kts
2026-05-04 19:13 43.42723 -2.89047 36032 ft 474 kts 10°
2026-05-04 19:14 43.46537 -2.87963 36024 ft 474 kts 10°
2026-05-04 19:14 43.49544 -2.87038 36014 ft 474 kts 10°
2026-05-04 19:15 43.51686 -2.86366 36012 ft 474 kts 11°
2026-05-04 19:15 43.56242 -2.84909 36017 ft 473 kts
2026-05-04 19:16 43.60694 -2.83615 36034 ft 473 kts
2026-05-04 19:16 43.65077 -2.82349 36024 ft 473 kts
2026-05-04 19:17 43.68902 -2.81224 36020 ft 473 kts 11°
2026-05-04 19:17 43.72738 -2.80003 36014 ft 473 kts 11°
2026-05-04 19:18 43.79140 -2.77903 36016 ft 473 kts 11°
2026-05-04 19:18 43.85538 -2.75814 36016 ft 473 kts 11°
2026-05-04 19:19 43.90860 -2.74079 36016 ft 472 kts 11°
2026-05-04 19:19 43.97312 -2.72414 36020 ft 471 kts
2026-05-04 19:20 44.03790 -2.71066 36021 ft 471 kts
2026-05-04 19:20 44.10280 -2.69708 36021 ft 473 kts
2026-05-04 19:21 44.16831 -2.68282 36190 ft 479 kts
2026-05-04 19:21 44.20119 -2.67553 36424 ft 478 kts
2026-05-04 19:21 44.23392 -2.66823 36704 ft 475 kts
2026-05-04 19:21 44.26656 -2.66093 36895 ft 476 kts
2026-05-04 19:22 44.29930 -2.65361 37027 ft 477 kts
2026-05-04 19:22 44.36524 -2.63886 36937 ft 481 kts
2026-05-04 19:22 44.39828 -2.63146 36831 ft 481 kts
2026-05-04 19:23 44.43125 -2.62407 36694 ft 478 kts
2026-05-04 19:23 44.46397 -2.61672 36564 ft 474 kts
2026-05-04 19:23 44.49655 -2.60940 36445 ft 475 kts
2026-05-04 19:23 44.52918 -2.60206 36323 ft 475 kts
2026-05-04 19:24 44.56188 -2.59470 36201 ft 476 kts
2026-05-04 19:24 44.59460 -2.58733 36099 ft 477 kts
2026-05-04 19:24 44.62731 -2.57996 36024 ft 477 kts
2026-05-04 19:25 44.69257 -2.56520 35997 ft 472 kts
2026-05-04 19:25 44.75721 -2.55055 36008 ft 470 kts
2026-05-04 19:26 44.82188 -2.53587 36002 ft 471 kts
2026-05-04 19:26 44.88669 -2.52113 36004 ft 472 kts
2026-05-04 19:27 44.95110 -2.50644 36003 ft 472 kts
2026-05-04 19:27 45.01602 -2.49159 36007 ft 473 kts
2026-05-04 19:28 45.08105 -2.47669 36004 ft 474 kts
2026-05-04 19:28 45.14613 -2.46174 36002 ft 474 kts
2026-05-04 19:29 45.21118 -2.44677 36004 ft 474 kts
2026-05-04 19:29 45.27622 -2.43176 35998 ft 473 kts
2026-05-04 19:30 45.34120 -2.41673 35998 ft 473 kts
2026-05-04 19:30 45.40605 -2.40170 36000 ft 472 kts
2026-05-04 19:31 45.47083 -2.38665 35996 ft 471 kts
2026-05-04 19:31 45.53550 -2.37158 35992 ft 471 kts
2026-05-04 19:32 45.60010 -2.35650 35994 ft 470 kts
2026-05-04 19:32 45.66454 -2.34143 35976 ft 469 kts
2026-05-04 19:33 45.72892 -2.32633 35987 ft 468 kts
2026-05-04 19:33 45.79324 -2.31121 35994 ft 468 kts
2026-05-04 19:34 45.85759 -2.29604 35986 ft 469 kts
2026-05-04 19:34 45.92201 -2.28082 35988 ft 469 kts
2026-05-04 19:35 45.98650 -2.26555 35992 ft 470 kts
2026-05-04 19:35 46.05101 -2.25025 35986 ft 470 kts
2026-05-04 19:36 46.11561 -2.23466 35988 ft 471 kts
2026-05-04 19:36 46.18017 -2.21888 35984 ft 471 kts
2026-05-04 19:37 46.24484 -2.20305 35983 ft 471 kts
2026-05-04 19:37 46.30946 -2.18722 35984 ft 471 kts
2026-05-04 19:38 46.37410 -2.17136 35984 ft 471 kts
2026-05-04 19:38 46.43869 -2.15548 35980 ft 471 kts
2026-05-04 19:39 46.50283 -2.13966 35982 ft 470 kts
2026-05-04 19:39 46.56775 -2.12362 35989 ft 470 kts
2026-05-04 19:40 46.63176 -2.10776 35981 ft 469 kts
2026-05-04 19:40 46.69605 -2.09179 35974 ft 469 kts
2026-05-04 19:41 46.76033 -2.07579 35969 ft 468 kts
2026-05-04 19:41 46.82448 -2.05978 35973 ft 467 kts
2026-05-04 19:42 46.88856 -2.04374 35973 ft 467 kts
2026-05-04 19:42 46.95254 -2.02770 35969 ft 467 kts
2026-05-04 19:43 47.01440 -2.00047 35977 ft 465 kts 27°
2026-05-04 19:43 47.06809 -1.94839 35974 ft 463 kts 40°
2026-05-04 19:44 47.11890 -1.89019 35966 ft 464 kts 39°
2026-05-04 19:44 47.17542 -1.84434 35974 ft 467 kts 20°
2026-05-04 19:45 47.23876 -1.82243 35972 ft 468 kts 11°
2026-05-04 19:45 47.30295 -1.80522 35961 ft 469 kts 11°
2026-05-04 19:46 47.36725 -1.78754 35956 ft 470 kts 11°
2026-05-04 19:46 47.43149 -1.76923 35958 ft 470 kts 11°
2026-05-04 19:47 47.49573 -1.75065 35955 ft 470 kts 11°
2026-05-04 19:47 47.55999 -1.73199 35957 ft 470 kts 11°
2026-05-04 19:48 47.62418 -1.71333 35961 ft 470 kts 11°
2026-05-04 19:48 47.68834 -1.69465 35956 ft 470 kts 11°
2026-05-04 19:49 47.75243 -1.67595 35935 ft 469 kts 12°
2026-05-04 19:49 47.81644 -1.65721 35964 ft 469 kts 12°
2026-05-04 19:50 47.88012 -1.63853 35965 ft 470 kts 12°
2026-05-04 19:50 47.94427 -1.61967 35967 ft 470 kts 12°
2026-05-04 19:51 48.00856 -1.60071 35971 ft 471 kts 12°
2026-05-04 19:51 48.07289 -1.58169 35969 ft 472 kts 12°
2026-05-04 19:52 48.13731 -1.56260 35967 ft 472 kts 12°
2026-05-04 19:52 48.20178 -1.54345 35967 ft 472 kts 12°
2026-05-04 19:53 48.26620 -1.52426 35975 ft 472 kts 12°
2026-05-04 19:53 48.33057 -1.50504 35970 ft 471 kts 12°
2026-05-04 19:54 48.39484 -1.48579 35982 ft 470 kts 12°
2026-05-04 19:54 48.45892 -1.46655 35980 ft 469 kts 12°
2026-05-04 19:55 48.52285 -1.44731 35978 ft 468 kts 12°
2026-05-04 19:55 48.58669 -1.42805 35983 ft 467 kts 12°
2026-05-04 19:56 48.65031 -1.40880 35983 ft 466 kts 12°
2026-05-04 19:56 48.71379 -1.38936 35984 ft 465 kts 12°
2026-05-04 19:57 48.77719 -1.36941 35990 ft 465 kts 12°
2026-05-04 19:57 48.84047 -1.34939 35994 ft 465 kts 12°
2026-05-04 19:58 48.90373 -1.32939 35996 ft 465 kts 12°
2026-05-04 19:58 48.96706 -1.30934 35972 ft 465 kts 12°
2026-05-04 19:59 49.03050 -1.28922 35994 ft 466 kts 12°
2026-05-04 19:59 49.09409 -1.26899 36004 ft 467 kts 12°
2026-05-04 20:00 49.15783 -1.24866 35998 ft 468 kts 12°
2026-05-04 20:00 49.22128 -1.22837 36005 ft 469 kts 12°
2026-05-04 20:01 49.28518 -1.20788 36006 ft 470 kts 12°
2026-05-04 20:01 49.34913 -1.18732 36001 ft 470 kts 12°
2026-05-04 20:02 49.41313 -1.16669 36000 ft 469 kts 12°
2026-05-04 20:02 49.47694 -1.14606 35999 ft 468 kts 12°
2026-05-04 20:03 49.54059 -1.12544 36001 ft 467 kts 12°
2026-05-04 20:03 49.59605 -1.10831 35990 ft 466 kts
2026-05-04 20:04 49.64571 -1.10185 36001 ft 465 kts
2026-05-04 20:04 49.70502 -1.09426 35997 ft 464 kts
2026-05-04 20:05 49.76526 -1.08605 36000 ft 463 kts
2026-05-04 20:05 49.82602 -1.07761 36002 ft 463 kts
2026-05-04 20:06 49.88234 -1.06999 36006 ft 462 kts
2026-05-04 20:06 49.93090 -1.06342 36005 ft 462 kts
2026-05-04 20:07 49.98797 -1.05565 36008 ft 461 kts
2026-05-04 20:07 50.04384 -1.04793 36005 ft 461 kts
2026-05-04 20:08 50.09913 -1.04016 36005 ft 461 kts
2026-05-04 20:08 50.16306 -1.03115 36006 ft 461 kts
2026-05-04 20:09 50.22701 -1.02213 36012 ft 461 kts
2026-05-04 20:09 50.29093 -1.01310 36003 ft 461 kts
2026-05-04 20:10 50.35485 -1.00407 36006 ft 461 kts
2026-05-04 20:10 50.41871 -0.99515 36003 ft 461 kts
2026-05-04 20:11 50.48254 -0.98622 36007 ft 460 kts
2026-05-04 20:11 50.54630 -0.97727 36005 ft 460 kts
2026-05-04 20:12 50.60994 -0.96830 36008 ft 459 kts
2026-05-04 20:12 50.67349 -0.95932 36016 ft 458 kts
2026-05-04 20:13 50.73685 -0.95025 36006 ft 457 kts
2026-05-04 20:13 50.80005 -0.94093 36012 ft 456 kts
2026-05-04 20:14 50.86160 -0.91884 36022 ft 454 kts 18°
2026-05-04 20:14 50.92146 -0.88697 36023 ft 453 kts 19°
2026-05-04 20:15 50.98122 -0.85505 36012 ft 453 kts 18°
2026-05-04 20:15 51.04119 -0.82359 35653 ft 458 kts 18°
2026-05-04 20:15 51.07141 -0.80785 35163 ft 456 kts 18°
2026-05-04 20:16 51.10159 -0.79214 34596 ft 456 kts 18°
2026-05-04 20:16 51.13137 -0.77663 34026 ft 457 kts 18°
2026-05-04 20:16 51.16164 -0.76084 33301 ft 458 kts 18°
2026-05-04 20:16 51.19193 -0.74501 32644 ft 458 kts 18°
2026-05-04 20:17 51.22217 -0.72918 31990 ft 459 kts 18°
2026-05-04 20:17 51.25257 -0.71324 31343 ft 459 kts 18°
2026-05-04 20:17 51.28294 -0.69729 30754 ft 459 kts 19°
2026-05-04 20:17 51.31315 -0.68140 30299 ft 456 kts 19°
2026-05-04 20:18 51.34306 -0.66565 29766 ft 451 kts 18°
2026-05-04 20:18 51.37276 -0.64998 29235 ft 447 kts 18°
2026-05-04 20:18 51.40227 -0.63440 28754 ft 446 kts 18°
2026-05-04 20:18 51.43173 -0.61882 28252 ft 445 kts 19°
2026-05-04 20:19 51.46097 -0.60333 27769 ft 440 kts 19°
2026-05-04 20:19 51.48990 -0.58800 27285 ft 436 kts 19°
2026-05-04 20:19 51.51855 -0.57279 26807 ft 432 kts 19°
2026-05-04 20:19 51.54695 -0.55769 26340 ft 428 kts 19°
2026-05-04 20:20 51.57510 -0.54270 25874 ft 425 kts 19°
2026-05-04 20:20 51.60304 -0.52780 25416 ft 421 kts 19°
2026-05-04 20:20 51.63072 -0.51303 24959 ft 418 kts 19°
2026-05-04 20:20 51.65823 -0.49832 24507 ft 415 kts 19°
2026-05-04 20:21 51.68549 -0.48373 24078 ft 412 kts 19°
2026-05-04 20:21 51.71261 -0.46920 23616 ft 409 kts 19°
2026-05-04 20:21 51.76637 -0.44035 22604 ft 403 kts 19°
2026-05-04 20:22 51.79357 -0.43119 22136 ft 400 kts
2026-05-04 20:22 51.82072 -0.43717 21811 ft 391 kts 342°
2026-05-04 20:22 51.84523 -0.45510 21457 ft 384 kts 327°
2026-05-04 20:22 51.86781 -0.47763 21126 ft 379 kts 326°
2026-05-04 20:23 51.89008 -0.50045 20791 ft 379 kts 326°
2026-05-04 20:23 51.91259 -0.52308 20464 ft 382 kts 327°
2026-05-04 20:23 51.93533 -0.54555 20129 ft 383 kts 327°
2026-05-04 20:23 51.95807 -0.56783 19794 ft 380 kts 327°
2026-05-04 20:24 51.98065 -0.58986 19454 ft 377 kts 327°
2026-05-04 20:24 52.00305 -0.61173 19133 ft 375 kts 327°
2026-05-04 20:24 52.02530 -0.63348 18808 ft 372 kts 327°
2026-05-04 20:24 52.04713 -0.65486 18491 ft 370 kts 327°
2026-05-04 20:25 52.06938 -0.67669 18143 ft 368 kts 327°
2026-05-04 20:25 52.09129 -0.69823 17778 ft 366 kts 327°
2026-05-04 20:25 52.11304 -0.71964 17446 ft 364 kts 327°
2026-05-04 20:25 52.13461 -0.74089 17119 ft 362 kts 327°
2026-05-04 20:26 52.15607 -0.76206 16802 ft 359 kts 327°
2026-05-04 20:26 52.17737 -0.78309 16491 ft 357 kts 327°
2026-05-04 20:26 52.19855 -0.80402 16180 ft 355 kts 327°
2026-05-04 20:26 52.21962 -0.82487 15870 ft 353 kts 327°
2026-05-04 20:27 52.23877 -0.84865 15539 ft 350 kts 309°
2026-05-04 20:27 52.25131 -0.88205 15269 ft 344 kts 289°
2026-05-04 20:27 52.25760 -0.91954 14982 ft 341 kts 282°
2026-05-04 20:27 52.26266 -0.95731 14684 ft 341 kts 281°
2026-05-04 20:28 52.26753 -0.99505 14387 ft 340 kts 281°
2026-05-04 20:28 52.27244 -1.03275 14076 ft 339 kts 282°
2026-05-04 20:28 52.27741 -1.07028 13788 ft 338 kts 282°
2026-05-04 20:28 52.28242 -1.10763 13471 ft 336 kts 282°
2026-05-04 20:29 52.28744 -1.14487 13152 ft 335 kts 282°
2026-05-04 20:29 52.29246 -1.18194 12851 ft 333 kts 282°
2026-05-04 20:29 52.29744 -1.21871 12556 ft 331 kts 282°
2026-05-04 20:29 52.30239 -1.25533 12262 ft 327 kts 282°
2026-05-04 20:30 52.30724 -1.29131 11973 ft 321 kts 282°
2026-05-04 20:30 52.31199 -1.32662 11696 ft 315 kts 282°
2026-05-04 20:30 52.31665 -1.36137 11423 ft 310 kts 282°
2026-05-04 20:30 52.32120 -1.39548 11155 ft 304 kts 282°
2026-05-04 20:31 52.32562 -1.42864 10887 ft 293 kts 282°
2026-05-04 20:31 52.32988 -1.46066 10642 ft 286 kts 282°
2026-05-04 20:31 52.33409 -1.49238 10402 ft 284 kts 281°
2026-05-04 20:31 52.33825 -1.52377 10148 ft 281 kts 281°
2026-05-04 20:32 52.34236 -1.55477 9975 ft 276 kts 281°
2026-05-04 20:32 52.34638 -1.58521 9753 ft 272 kts 281°
2026-05-04 20:32 52.35034 -1.61536 9451 ft 271 kts 281°
2026-05-04 20:32 52.35415 -1.64544 9160 ft 268 kts 277°
2026-05-04 20:33 52.35200 -1.67505 8715 ft 265 kts 245°
2026-05-04 20:33 52.34139 -1.69958 8286 ft 264 kts 231°
2026-05-04 20:33 52.32953 -1.72243 7839 ft 264 kts 230°
2026-05-04 20:33 52.31541 -1.74123 7370 ft 266 kts 203°
2026-05-04 20:34 52.29724 -1.74430 6928 ft 268 kts 168°
2026-05-04 20:34 52.28103 -1.73007 6471 ft 269 kts 134°
2026-05-04 20:34 52.26979 -1.70627 6041 ft 267 kts 126°
2026-05-04 20:34 52.25894 -1.68147 5763 ft 259 kts 125°
2026-05-04 20:35 52.24885 -1.65843 5619 ft 247 kts 125°
2026-05-04 20:35 52.23916 -1.63566 5315 ft 242 kts 117°
2026-05-04 20:35 52.23587 -1.60942 4892 ft 237 kts 77°
2026-05-04 20:35 52.24310 -1.58652 4555 ft 224 kts 42°
2026-05-04 20:36 52.25454 -1.57052 4350 ft 212 kts 29°
2026-05-04 20:36 52.26819 -1.56574 4159 ft 197 kts 351°
2026-05-04 20:36 52.28159 -1.56960 4025 ft 195 kts 350°
2026-05-04 20:36 52.29489 -1.57375 3867 ft 193 kts 342°
2026-05-04 20:37 52.30675 -1.58376 3668 ft 194 kts 328°
2026-05-04 20:37 52.31787 -1.59608 3448 ft 191 kts 327°
2026-05-04 20:37 52.32865 -1.60826 3197 ft 186 kts 327°
2026-05-04 20:37 52.33924 -1.62013 2938 ft 182 kts 327°
2026-05-04 20:38 52.34957 -1.63169 2713 ft 177 kts 327°
2026-05-04 20:38 52.35966 -1.64295 2464 ft 174 kts 327°
2026-05-04 20:38 52.36952 -1.65395 2224 ft 169 kts 327°
2026-05-04 20:38 52.37906 -1.66461 2010 ft 164 kts 327°
2026-05-04 20:39 52.38845 -1.67509 1817 ft 160 kts 327°
2026-05-04 20:39 52.39740 -1.68508 1577 ft 152 kts 327°
2026-05-04 20:39 52.40606 -1.69475 1354 ft 149 kts 328°
2026-05-04 20:39 52.41456 -1.70422 1134 ft 147 kts 328°
2026-05-04 20:40 52.42309 -1.71371 938 ft 149 kts 327°
2026-05-04 20:40 52.43165 -1.72327 730 ft 148 kts 327°
2026-05-04 20:40 52.44022 -1.73286 526 ft 150 kts 328°
2026-05-04 20:40 52.44890 -1.74250 334 ft 147 kts 327°
2026-05-04 20:41 52.45625 -1.75067 323 ft 98 kts 326°
2026-05-04 20:41 52.46003 -1.75486 311 ft 34 kts 326°
2026-05-04 20:41 52.46124 -1.75613 308 ft 14 kts 346°
2026-05-04 20:41 52.46194 -1.75513 308 ft 15 kts 57°
2026-05-04 20:42 52.46184 -1.75360 303 ft 16 kts 144°
2026-05-04 20:42 52.46094 -1.75263 303 ft 15 kts 147°
2026-05-04 20:42 52.46006 -1.75164 304 ft 15 kts 146°
2026-05-04 20:42 52.45924 -1.75072 306 ft 14 kts 146°
2026-05-04 20:43 52.45839 -1.74978 306 ft 16 kts 146°
2026-05-04 20:43 52.45735 -1.74861 310 ft 20 kts 146°
2026-05-04 20:43 52.45618 -1.74732 317 ft 20 kts 147°
2026-05-04 20:43 52.45502 -1.74604 322 ft 20 kts 146°
2026-05-04 20:44 52.45428 -1.74421 322 ft 19 kts 117°
2026-05-04 20:44 52.45370 -1.74227 322 ft 19 kts 116°
2026-05-04 20:44 52.45313 -1.74046 322 ft 15 kts 112°
2026-05-04 20:44 52.45346 -1.73896 322 ft 14 kts 56°
2026-05-04 20:45 52.45397 -1.73773 322 ft 12 kts 56°
2026-05-04 20:45 52.45440 -1.73670 322 ft 9 kts 56°
2026-05-04 20:45 52.45461 -1.73607 322 ft 5 kts 85°
2026-05-04 20:45 52.45440 -1.73565 322 ft 5 kts 140°
2026-05-04 20:46 52.45413 -1.73534 322 ft 5 kts 146°
2026-05-04 20:46 52.45398 -1.73518 322 ft 0 kts 146°